Temp
16 16 15 15 15 15 16 16 16 15 15 14 14 13 13 12 12 12 12 12 13 13 13 13 13 13 13 13 12 12 12 12 12 11 11 11 11 11 10 10 10 10 10 10 10 10 10 10 10 10 10 10 9 9 9 9 9 9 9 9 9 9 9 9 9 9 9 8 8
16 15 15 15 15 15 15 15 15 15 15 14 14 13 13 12 12 12 12 12 13 13 13 13 13 13 13 13 13 12 12 12 12 11 11 11 11 11 10 10 10 10 10 10 10 10 10 10 10 10 10 9 9 9 9 9 9 9 9 9 9 9 9 9 9 9 9 8 8
16 15 15 15 15 15 15 15 15 15 15 14 14 13 13 12 12 12 12 12 12 13 13 13 13 13 12 12 12 12 12 12 12 11 11 11 11 11 10 10 10 10 10 10 10 10 10 10 10 10 10 9 9 9 9 9 9 9 9 9 9 9 9 9 9 9 9 8 8
15 15 15 15 14 14 15 15 15 15 14 14 14 13 13 13 12 12 12 12 12 12 13 13 13 13 12 12 12 12 12 12 12 11 11 11 11 11 11 10 10 10 10 10 10 10 10 10 10 10 9 9 9 9 9 9 9 9 9 9 9 9 9 9 9 8 8 8 8
15 15 15 14 14 14 14 14 14 14 14 14 14 13 13 13 12 12 12 12 12 12 12 13 13 13 12 12 12 12 12 12 12 11 11 11 11 11 11 10 10 10 10 10 10 10 10 10 10 10 10 9 9 9 9 9 9 9 9 9 9 9 9 9 9 8 8 8 8
15 15 15 14 14 14 14 14 14 14 14 14 13 13 13 13 13 12 12 12 12 12 12 12 13 13 12 12 12 12 12 12 12 11 11 11 11 11 11 11 10 10 10 10 10 10 10 10 10 10 10 10 9 9 9 9 9 9 9 9 9 9 9 9 9 9 8 8 8
15 15 15 14 14 14 14 14 14 14 13 13 13 13 13 13 13 13 13 13 12 12 12 12 12 12 12 12 12 12 12 12 12 11 11 11 11 11 11 11 11 10 10 10 10 10 10 10 10 10 10 10 10 9 9 9 9 9 9 9 9 9 9 9 9 9 9 8 8
15 15 15 14 14 14 14 13 13 13 13 13 13 13 13 13 13 13 13 13 12 12 12 12 12 12 12 12 12 12 12 12 12 11 11 11 11 11 11 11 10 10 10 10 10 10 10 10 10 10 10 10 10 9 9 9 9 9 9 9 9 9 9 9 9 9 9 8 8
15 15 14 14 14 14 13 13 13 13 13 13 13 13 13 13 13 13 13 12 12 12 12 12 12 12 12 12 12 12 12 12 12 12 11 11 11 11 11 11 10 10 10 10 10 10 10 10 10 10 10 10 10 10 10 10 9 9 9 9 9 9 9 9 9 9 9 9 8
15 15 14 14 14 13 13 13 13 13 13 13 13 13 13 13 13 12 12 12 12 12 12 12 12 12 12 12 12 12 12 12 12 12 12 12 11 11 11 11 10 10 10 10 10 10 10 10 10 10 10 10 10 10 10 10 9 9 9 9 9 9 9 9 9 9 9 9 8
15 15 14 14 14 13 13 13 13 13 13 13 12 12 12 12 12 12 12 12 12 12 12 12 12 12 12 12 12 12 12 12 11 12 12 12 12 11 11 11 11 11 10 10 10 10 10 10 10 10 10 10 10 10 10 10 9 9 9 9 9 9 9 9 9 9 9 9 8
15 14 14 14 13 13 13 13 12 12 12 12 12 12 12 12 12 12 12 12 12 12 12 12 12 12 12 12 12 12 12 11 11 11 12 12 12 11 11 11 11 11 10 10 10 10 10 10 10 10 10 10 10 10 10 10 9 9 9 9 9 9 9 9 9 9 9 9 8
14 14 14 13 13 13 12 12 12 12 12 12 12 12 12 12 12 12 12 12 12 12 12 12 12 12 12 12 12 12 12 11 11 11 11 11 11 11 11 11 11 11 10 10 10 10 10 10 10 10 10 10 10 10 10 10 9 9 9 9 9 9 9 9 9 9 9 8 8
14 14 13 13 13 12 12 12 12 12 12 12 12 12 12 12 12 12 12 12 12 12 12 12 12 12 12 12 12 12 12 12 12 11 11 11 11 11 11 11 11 11 11 10 10 10 10 10 10 10 10 10 10 10 10 10 10 9 9 9 9 9 9 9 8 8 8 8 8
14 13 13 13 12 12 12 12 12 12 12 12 12 12 12 12 12 12 12 12 12 12 12 12 12 12 12 12 12 12 12 12 12 12 11 11 11 11 11 11 11 11 11 11 11 10 10 10 10 10 10 10 10 10 10 10 10 10 10 9 9 9 9 9 8 8 8 8 8
13 13 13 12 12 12 12 12 12 12 12 12 12 12 12 12 12 12 12 12 12 12 12 12 12 12 12 11 11 12 12 12 12 12 12 11 11 11 11 11 11 11 11 11 11 11 10 10 10 10 10 10 10 10 10 10 10 10 10 10 9 9 9 9 8 8 8 8 8
13 12 12 12 12 12 12 12 12 12 12 12 12 12 12 12 12 12 12 12 12 12 12 12 11 12 12 12 12 12 12 12 12 12 12 12 11 11 11 11 11 11 11 11 11 11 10 10 10 10 10 10 10 10 10 10 10 10 10 10 10 9 9 9 8 8 8 8 8
12 12 12 12 12 12 12 12 12 12 12 12 12 12 12 12 12 12 12 12 12 12 12 11 12 12 12 12 12 12 12 12 12 12 12 12 11 11 11 11 11 11 11 11 11 10 10 10 10 10 10 10 10 10 10 10 10 10 10 10 10 9 9 9 8 8 8 8 8
12 12 12 12 12 12 12 12 12 12 12 12 12 12 12 12 12 12 12 12 12 12 12 11 11 11 12 12 12 12 12 12 11 11 11 12 11 11 11 11 11 11 11 11 11 10 10 10 10 10 10 10 10 10 10 10 10 10 10 10 9 9 9 8 8 8 8 8 8
12 12 12 12 12 12 12 12 12 12 12 12 12 12 12 12 12 12 12 12 12 12 12 11 11 11 11 12 12 12 12 12 11 11 11 11 11 11 11 11 11 11 11 10 10 10 10 10 10 10 10 10 10 10 10 10 10 10 9 9 9 9 9 8 8 8 8 8 8
12 12 12 12 12 12 12 12 12 12 12 12 12 12 12 12 12 12 12 12 12 12 12 12 11 11 11 12 12 12 12 11 11 11 11 11 11 11 11 11 11 10 10 10 10 10 10 10 10 10 10 10 10 10 9 9 9 9 9 9 9 9 9 9 8 8 8 8 8
12 12 12 12 12 12 12 12 12 12 12 12 12 12 12 12 12 12 12 12 12 12 12 12 11 11 11 11 11 11 11 11 11 11 11 11 11 11 11 11 10 10 10 10 10 10 10 10 10 10 10 9 9 9 9 9 9 9 9 9 9 9 9 9 8 8 8 8 8
12 12 12 12 12 12 12 12 12 12 12 12 12 12 12 12 12 12 12 12 12 12 12 12 11 11 11 11 11 11 11 11 11 11 11 11 11 11 11 10 10 10 10 10 10 10 10 10 10 10 10 10 10 9 9 9 9 9 9 9 9 9 8 8 8 8 8 8 8
12 12 12 12 12 12 12 12 12 12 12 12 12 12 12 12 12 12 12 12 12 12 12 12 11 11 11 11 11 11 11 11 11 11 11 11 11 11 10 10 10 10 10 10 10 10 10 10 10 10 10 10 10 9 9 9 9 9 9 9 9 9 8 8 8 8 8 8 8
12 12 12 12 12 12 12 12 12 12 12 12 12 12 12 12 12 12 12 12 12 12 11 11 11 11 11 11 11 11 11 11 11 11 11 11 11 10 10 10 10 10 10 10 10 10 10 10 10 10 10 10 10 10 9 9 9 9 9 9 9 9 8 8 8 8 8 8 8
12 12 12 12 12 12 12 12 12 12 12 12 12 12 12 12 12 12 12 11 11 11 11 11 11 11 11 11 11 11 11 11 11 11 11 11 10 10 10 10 10 10 10 10 10 10 10 10 10 10 10 10 10 10 10 10 10 9 9 9 9 9 8 8 8 8 8 8 8
12 12 12 12 12 12 12 12 12 12 12 12 12 12 12 12 12 12 11 11 11 11 11 11 11 11 11 11 11 11 11 11 11 10 10 10 10 10 10 10 10 10 10 10 10 10 10 10 10 10 10 10 10 10 10 10 10 9 9 9 9 9 8 8 8 8 8 8 8
12 12 12 12 12 12 12 12 12 12 12 12 12 13 13 12 12 12 11 11 11 11 11 11 11 11 11 11 11 11 11 11 11 10 10 10 10 10 10 10 10 10 10 10 10 10 10 10 10 10 10 10 10 10 10 9 9 9 9 9 9 9 8 8 8 8 8 8 8
12 12 12 12 12 12 12 12 12 12 12 12 12 12 12 12 12 11 11 11 11 11 11 11 11 11 11 11 11 11 11 11 10 10 10 10 10 10 10 10 10 10 10 10 10 10 10 10 10 10 10 10 10 10 10 9 9 9 9 9 9 9 8 8 8 8 8 8 8
12 12 12 12 12 12 12 12 12 12 12 12 12 12 12 12 11 11 11 11 11 11 11 11 11 11 11 11 11 11 11 10 10 10 10 10 10 10 10 10 10 10 10 10 10 10 10 10 10 10 10 10 10 10 9 9 9 9 9 9 9 9 9 9 9 9 9 9 9
12 12 12 12 12 12 12 12 12 12 12 12 12 12 12 11 11 11 11 10 10 11 11 11 11 11 11 11 11 11 10 10 10 10 10 10 10 10 10 10 10 10 10 10 10 10 10 9 9 9 9 9 9 9 9 9 9 9 9 9 9 9 9 9 9 9 9 9 9
12 12 12 12 12 12 12 12 12 12 12 12 12 12 11 11 11 11 10 10 11 11 11 11 11 11 11 11 10 10 10 10 10 10 10 10 10 10 10 10 10 10 10 10 9 9 9 9 9 9 9 9 9 9 9 9 9 9 9 9 9 9 9 9 9 9 9 9 9
12 12 12 12 12 12 12 12 12 12 12 12 12 11 11 11 11 11 11 11 11 11 11 11 11 11 10 10 10 10 10 10 10 10 10 10 10 10 10 10 10 10 10 9 9 9 9 9 9 9 9 9 9 9 9 9 9 9 9 9 9 9 9 9 9 9 9 9 9
12 12 12 12 12 12 12 12 12 12 12 11 11 11 11 11 11 11 11 11 11 11 11 11 10 10 10 10 10 10 10 10 10 10 10 10 10 10 10 10 10 10 10 9 9 9 9 9 9 9 9 9 9 9 9 9 9 9 9 9 9 9 9 9 9 9 9 9 9
11 11 11 12 12 12 12 11 11 11 11 11 11 11 11 11 11 11 11 10 10 10 10 10 10 10 10 10 10 10 10 10 10 10 10 10 10 10 10 10 10 10 9 9 9 9 9 9 9 9 9 9 9 9 9 9 9 9 9 9 9 9 9 9 9 9 9 9 9
11 11 11 11 12 11 11 11 11 11 11 11 11 11 11 11 11 10 10 10 10 10 10 10 10 10 10 10 10 10 10 10 10 10 10 10 10 10 10 10 10 9 9 9 9 9 9 9 9 9 9 9 9 9 9 9 9 9 9 9 9 9 9 9 9 9 9 9 9
11 11 11 11 11 11 11 11 11 11 11 11 11 11 10 10 10 10 10 10 10 10 10 10 10 10 10 10 10 10 10 10 10 10 10 10 10 10 10 10 10 9 9 9 9 9 9 9 9 9 9 9 9 9 8 8 8 8 9 9 9 9 8 8 8 8 8 8 8
11 11 11 11 11 11 11 11 11 11 11 11 11 10 10 10 10 10 10 10 10 10 10 10 10 10 10 10 10 9 9 9 10 10 10 10 10 10 10 10 9 9 9 9 9 9 9 9 9 9 9 9 9 9 8 8 8 8 8 8 8 8 8 8 8 8 8 8 8
11 11 11 11 11 11 11 10 10 10 10 10 10 10 10 10 10 10 10 10 10 10 10 10 10 10 10 9 9 9 9 9 10 10 10 10 10 10 10 9 9 9 9 9 9 9 9 9 9 9 9 9 9 8 8 8 8 8 8 8 8 7 7 7 7 7 7 7 7
11 11 11 11 11 11 11 10 10 10 10 10 10 10 10 10 10 10 10 10 10 10 10 10 10 9 9 9 9 9 9 9 10 10 10 10 10 9 9 9 9 9 9 8 9 9 9 9 9 9 9 8 8 8 8 8 8 8 7 7 7 7 7 7 6 6 6 6 6
11 11 11 11 11 11 11 11 10 10 10 10 10 10 10 10 10 9 9 9 9 9 9 9 9 9 9 9 9 9 9 9 9 9 9 10 9 9 9 9 9 9 9 8 8 8 8 9 9 9 8 8 8 8 8 8 7 7 7 7 6 6 6 6 6 6 5 5 5
Height
1375 1376 1377 1378 1379 1381 1382 1383 1385 1386 1386 1386 1387 1388 1388 1389 1390 1390 1391 1392 1394 1395 1397 1398 1399 1401 1402 1403 1403 1404 1405 1407 1408 1409 1411 1413 1414 1416 1417 1419 1420 1421 1422 1424 1425 1427 1428 1429 1430 1432 1433 1435 1437 1438 1439 1441 1442 1443 1444 1446 1447 1448 1449 1450 1451 1452 1453 1455 1455
1373 1374 1375 1377 1378 1379 1381 1382 1383 1384 1385 1385 1385 1386 1387 1387 1388 1389 1389 1391 1392 1394 1395 1397 1398 1399 1400 1402 1402 1403 1404 1405 1406 1408 1409 1411 1413 1415 1416 1418 1418 1420 1421 1422 1424 1425 1426 1428 1429 1430 1432 1433 1435 1437 1438 1439 1441 1442 1443 1444 1445 1446 1447 1448 1449 1450 1452 1453 1454
1371 1372 1374 1375 1376 1378 1379 1380 1381 1382 1383 1383 1384 1385 1385 1386 1386 1387 1388 1389 1391 1393 1394 1395 1397 1398 1398 1400 1401 1402 1403 1404 1405 1406 1408 1409 1411 1413 1415 1416 1417 1418 1419 1421 1422 1423 1424 1426 1427 1428 1430 1432 1433 1435 1437 1438 1439 1441 1442 1442 1443 1444 1445 1446 1447 1449 1450 1452 1453
1369 1371 1372 1373 1374 1376 1377 1378 1379 1381 1382 1382 1383 1383 1384 1384 1385 1386 1387 1388 1390 1391 1393 1394 1395 1396 1397 1398 1400 1401 1402 1403 1404 1405 1406 1408 1409 1411 1413 1414 1415 1416 1418 1419 1421 1422 1423 1425 1426 1428 1429 1430 1432 1433 1435 1436 1438 1440 1441 1442 1442 1443 1444 1445 1446 1448 1449 1450 1451
1367 1368 1370 1372 1373 1374 1375 1377 1378 1379 1380 1381 1382 1383 1383 1383 1384 1384 1385 1387 1388 1390 1391 1392 1394 1395 1396 1397 1398 1400 1401 1402 1403 1403 1405 1406 1408 1409 1411 1413 1413 1415 1416 1418 1419 1421 1422 1423 1425 1426 1428 1429 1430 1432 1433 1435 1437 1438 1440 1441 1441 1442 1443 1444 1445 1446 1447 1448 1449
1365 1367 1368 1370 1371 1373 1374 1376 1377 1378 1378 1379 1380 1381 1381 1382 1383 1383 1384 1385 1387 1388 1389 1391 1393 1394 1395 1396 1397 1398 1400 1401 1401 1402 1403 1404 1406 1408 1409 1411 1412 1413 1415 1416 1418 1419 1421 1423 1424 1425 1427 1428 1429 1431 1432 1433 1435 1437 1438 1440 1440 1441 1441 1442 1443 1444 1445 1446 1447
1363 1365 1367 1368 1370 1371 1373 1374 1375 1376 1377 1378 1379 1379 1380 1380 1381 1382 1383 1384 1385 1387 1388 1390 1391 1393 1394 1395 1396 1397 1398 1399 1400 1401 1403 1403 1404 1406 1408 1409 1411 1412 1413 1415 1417 1418 1420 1421 1423 1424 1425 1426 1428 1430 1431 1432 1433 1435 1437 1438 1439 1439 1440 1441 1441 1442 1443 1444 1445
1362 1363 1365 1367 1368 1369 1370 1372 1373 1374 1375 1376 1377 1378 1378 1379 1380 1382 1383 1383 1384 1385 1387 1388 1390 1391 1393 1394 1395 1396 1397 1398 1399 1400 1401 1402 1403 1404 1406 1408 1409 1411 1413 1414 1415 1417 1418 1420 1421 1422 1423 1425 1426 1428 1429 1430 1432 1433 1434 1435 1437 1438 1438 1439 1440 1440 1441 1442 1444
1360 1362 1363 1366 1367 1368 1369 1370 1371 1372 1373 1374 1375 1376 1378 1379 1380 1381 1382 1382 1383 1384 1385 1386 1388 1390 1391 1393 1394 1395 1396 1397 1398 1399 1400 1401 1402 1403 1404 1406 1408 1410 1412 1413 1414 1415 1417 1418 1419 1421 1422 1423 1424 1426 1427 1428 1429 1431 1432 1433 1434 1436 1437 1438 1438 1438 1439 1441 1442
1358 1360 1362 1363 1365 1366 1367 1368 1369 1370 1372 1373 1374 1375 1377 1378 1379 1379 1380 1381 1382 1383 1384 1385 1387 1388 1390 1391 1393 1393 1395 1396 1397 1398 1399 1400 1401 1402 1403 1405 1407 1409 1410 1412 1413 1414 1415 1417 1418 1419 1420 1421 1423 1424 1425 1426 1427 1428 1430 1431 1432 1434 1435 1436 1437 1437 1438 1439 1440
1357 1358 1360 1362 1363 1364 1365 1366 1368 1369 1370 1372 1373 1374 1375 1376 1377 1378 1379 1380 1381 1382 1383 1384 1385 1387 1388 1390 1391 1392 1393 1394 1395 1397 1398 1399 1400 1401 1402 1404 1405 1407 1409 1410 1411 1413 1414 1415 1417 1418 1419 1420 1421 1422 1423 1424 1425 1427 1428 1429 1430 1432 1433 1434 1435 1436 1437 1438 1439
1355 1357 1358 1360 1362 1363 1363 1364 1366 1368 1369 1371 1372 1373 1374 1375 1376 1377 1378 1379 1380 1381 1382 1383 1384 1385 1387 1388 1389 1390 1391 1393 1394 1395 1397 1398 1399 1400 1402 1403 1404 1406 1407 1408 1410 1411 1412 1413 1415 1416 1417 1418 1420 1421 1421 1422 1423 1425 1426 1427 1429 1430 1431 1433 1433 1435 1436 1436 1438
1353 1355 1357 1358 1360 1361 1362 1363 1364 1366 1368 1370 1371 1372 1373 1373 1374 1375 1377 1378 1378 1380 1381 1381 1383 1384 1385 1387 1388 1389 1390 1391 1392 1394 1395 1397 1398 1399 1401 1402 1403 1404 1406 1407 1408 1409 1410 1412 1413 1414 1416 1417 1418 1419 1419 1421 1422 1423 1424 1426 1427 1428 1429 1430 1432 1433 1434 1435 1436
1352 1353 1355 1356 1358 1359 1360 1362 1363 1365 1366 1368 1369 1370 1371 1372 1373 1374 1375 1376 1378 1378 1379 1380 1381 1383 1384 1385 1387 1388 1389 1390 1391 1392 1393 1395 1397 1398 1399 1401 1402 1403 1404 1405 1406 1408 1409 1410 1412 1413 1414 1415 1416 1417 1418 1419 1420 1421 1423 1424 1425 1426 1427 1428 1430 1431 1433 1433 1434
1350 1351 1353 1354 1356 1357 1359 1360 1362 1363 1365 1366 1368 1369 1370 1371 1372 1373 1374 1375 1376 1377 1378 1379 1380 1381 1383 1384 1386 1387 1388 1389 1390 1390 1392 1393 1395 1397 1398 1399 1401 1402 1403 1404 1405 1406 1408 1409 1410 1411 1413 1413 1414 1415 1416 1417 1418 1419 1421 1422 1423 1424 1425 1426 1428 1429 1430 1432 1433
1348 1349 1351 1353 1354 1355 1357 1359 1360 1362 1363 1365 1366 1368 1369 1370 1371 1372 1373 1374 1375 1376 1377 1378 1379 1380 1382 1383 1384 1386 1388 1389 1389 1390 1391 1392 1393 1395 1397 1398 1400 1401 1402 1403 1404 1405 1406 1407 1409 1410 1411 1412 1413 1414 1415 1416 1417 1418 1419 1420 1421 1422 1423 1424 1426 1427 1428 1430 1431
1346 1348 1349 1350 1352 1353 1355 1357 1358 1360 1362 1363 1365 1366 1368 1369 1370 1371 1372 1373 1374 1374 1375 1377 1378 1380 1381 1382 1383 1385 1386 1388 1388 1389 1390 1391 1393 1394 1396 1397 1399 1400 1401 1402 1403 1404 1405 1406 1407 1408 1410 1411 1412 1413 1414 1415 1416 1417 1418 1419 1419 1420 1422 1423 1424 1425 1426 1428 1429
1345 1346 1347 1348 1350 1351 1353 1355 1357 1358 1360 1362 1364 1365 1367 1368 1368 1369 1371 1372 1372 1373 1374 1376 1378 1379 1380 1381 1383 1384 1385 1386 1387 1388 1390 1391 1392 1393 1395 1396 1398 1399 1400 1401 1402 1403 1404 1405 1406 1407 1408 1410 1410 1412 1413 1414 1415 1416 1417 1417 1418 1419 1420 1422 1423 1423 1424 1426 1427
1343 1344 1346 1347 1348 1350 1351 1353 1355 1357 1359 1361 1363 1364 1365 1367 1368 1368 1369 1370 1371 1372 1373 1375 1377 1378 1379 1380 1382 1383 1383 1385 1386 1388 1389 1391 1392 1393 1394 1396 1397 1398 1399 1400 1401 1402 1403 1404 1405 1406 1408 1408 1409 1411 1412 1413 1414 1415 1415 1416 1417 1418 1418 1420 1421 1422 1423 1424 1425
1342 1343 1344 1345 1347 1348 1349 1351 1353 1356 1358 1360 1362 1363 1364 1365 1366 1367 1368 1369 1371 1372 1373 1375 1376 1377 1378 1380 1381 1382 1383 1384 1385 1387 1388 1390 1391 1392 1393 1395 1396 1397 1398 1399 1400 1401 1402 1403 1404 1405 1406 1407 1408 1410 1411 1412 1413 1413 1414 1415 1415 1416 1417 1418 1420 1421 1422 1423 1424
1341 1342 1343 1344 1346 1346 1347 1348 1352 1355 1358 1360 1361 1362 1363 1364 1365 1366 1368 1369 1370 1372 1373 1374 1375 1376 1378 1379 1380 1381 1382 1383 1385 1386 1388 1389 1390 1391 1393 1393 1395 1396 1397 1398 1399 1400 1401 1402 1403 1404 1405 1406 1408 1408 1409 1411 1412 1413 1413 1414 1414 1415 1416 1417 1418 1420 1421 1422 1423
1340 1341 1342 1343 1344 1344 1345 1347 1350 1354 1357 1359 1360 1361 1362 1363 1364 1365 1367 1368 1370 1371 1373 1373 1374 1375 1377 1378 1379 1380 1381 1383 1384 1385 1386 1388 1389 1390 1391 1393 1394 1395 1396 1397 1398 1399 1400 1401 1402 1403 1404 1405 1406 1408 1408 1409 1410 1411 1412 1413 1413 1413 1414 1416 1417 1418 1419 1420 1422
1338 1339 1341 1342 1342 1343 1343 1346 1350 1353 1356 1358 1359 1360 1361 1362 1363 1365 1367 1368 1369 1371 1372 1373 1373 1374 1376 1377 1378 1379 1380 1381 1383 1384 1385 1387 1388 1389 1391 1392 1393 1394 1395 1396 1397 1398 1399 1400 1401 1402 1403 1404 1405 1406 1407 1408 1409 1410 1411 1411 1412 1413 1413 1414 1415 1417 1418 1419 1420
1337 1338 1339 1340 1340 1341 1343 1345 1349 1352 1355 1357 1357 1358 1360 1361 1363 1364 1366 1367 1368 1369 1371 1373 1373 1374 1375 1376 1377 1378 1379 1381 1382 1383 1384 1386 1387 1389 1390 1391 1393 1393 1394 1395 1396 1397 1398 1399 1400 1401 1402 1403 1404 1405 1406 1407 1408 1408 1409 1410 1411 1411 1412 1413 1414 1415 1416 1418 1419
1336 1337 1337 1338 1338 1339 1342 1345 1348 1351 1354 1355 1356 1358 1359 1361 1362 1364 1365 1366 1368 1369 1370 1371 1372 1373 1374 1375 1376 1378 1379 1380 1381 1382 1383 1385 1387 1388 1389 1391 1392 1393 1393 1394 1395 1396 1397 1398 1399 1400 1401 1402 1403 1404 1405 1406 1407 1407 1408 1409 1409 1410 1411 1412 1413 1413 1415 1416 1417
1334 1335 1335 1336 1337 1338 1341 1344 1348 1350 1353 1354 1355 1357 1359 1360 1362 1363 1364 1365 1367 1368 1368 1369 1371 1372 1373 1375 1376 1377 1378 1379 1381 1382 1383 1384 1386 1388 1389 1390 1391 1392 1392 1393 1394 1395 1396 1397 1398 1399 1401 1402 1403 1403 1404 1405 1406 1406 1407 1408 1408 1409 1410 1411 1412 1413 1413 1414 1416
1333 1333 1333 1334 1336 1338 1341 1344 1347 1349 1351 1353 1354 1357 1358 1360 1361 1362 1363 1364 1366 1367 1368 1369 1370 1371 1373 1374 1375 1376 1378 1379 1380 1381 1383 1384 1385 1387 1388 1389 1390 1390 1391 1392 1393 1394 1395 1396 1398 1399 1400 1401 1402 1403 1403 1404 1405 1405 1406 1407 1407 1408 1409 1410 1411 1412 1413 1414 1415
1331 1332 1332 1333 1335 1338 1341 1343 1346 1348 1350 1352 1354 1356 1358 1359 1360 1361 1363 1364 1365 1366 1367 1368 1369 1370 1372 1373 1374 1376 1377 1378 1379 1381 1382 1383 1385 1386 1387 1388 1389 1389 1390 1391 1392 1393 1394 1395 1397 1398 1399 1400 1401 1402 1403 1403 1404 1405 1405 1406 1407 1408 1408 1409 1410 1411 1412 1413 1414
1330 1331 1332 1333 1335 1338 1340 1343 1345 1347 1349 1351 1353 1355 1357 1358 1359 1360 1361 1363 1364 1365 1366 1367 1368 1370 1371 1373 1374 1375 1376 1378 1379 1380 1382 1383 1384 1385 1386 1387 1388 1389 1389 1391 1392 1393 1393 1394 1396 1397 1398 1399 1400 1401 1402 1403 1404 1404 1405 1406 1406 1407 1408 1408 1410 1411 1412 1413 1414
1328 1330 1331 1333 1335 1338 1340 1342 1344 1346 1348 1350 1353 1354 1356 1357 1358 1359 1361 1362 1363 1364 1365 1367 1368 1369 1371 1372 1373 1374 1376 1377 1378 1380 1381 1383 1383 1385 1386 1387 1388 1388 1389 1390 1391 1392 1393 1394 1395 1396 1398 1398 1399 1401 1402 1403 1404 1405 1406 1407 1408 1408 1409 1410 1411 1412 1412 1413 1413
1328 1329 1331 1333 1335 1337 1339 1341 1343 1345 1348 1350 1352 1353 1355 1356 1358 1359 1360 1361 1363 1364 1365 1366 1368 1369 1370 1371 1373 1374 1375 1377 1378 1379 1381 1382 1383 1384 1386 1387 1387 1388 1388 1389 1390 1391 1393 1393 1395 1396 1397 1398 1399 1401 1402 1403 1403 1403 1403 1404 1404 1404 1405 1405 1406 1407 1408 1410 1411
1327 1329 1331 1333 1335 1336 1338 1340 1342 1344 1347 1349 1351 1353 1354 1356 1357 1358 1360 1361 1362 1363 1365 1366 1367 1368 1370 1371 1372 1374 1375 1377 1378 1379 1380 1382 1383 1384 1385 1386 1385 1386 1387 1388 1389 1390 1391 1392 1393 1394 1395 1396 1397 1397 1397 1398 1398 1399 1400 1401 1402 1403 1403 1404 1405 1406 1407 1408 1409
1327 1328 1330 1332 1334 1336 1337 1339 1342 1344 1346 1348 1350 1352 1353 1355 1357 1358 1360 1361 1362 1363 1365 1366 1367 1368 1370 1371 1373 1374 1375 1377 1378 1379 1380 1382 1381 1380 1380 1382 1383 1385 1387 1388 1388 1389 1390 1391 1392 1393 1393 1395 1395 1396 1397 1398 1398 1399 1400 1400 1401 1402 1403 1403 1404 1405 1406 1407 1408
1326 1328 1329 1331 1333 1334 1336 1338 1341 1343 1345 1347 1348 1351 1353 1355 1357 1358 1359 1361 1362 1363 1364 1365 1366 1367 1369 1371 1372 1373 1374 1376 1378 1378 1377 1376 1377 1378 1380 1382 1384 1385 1386 1387 1388 1388 1389 1390 1391 1392 1393 1394 1394 1395 1396 1397 1397 1398 1399 1399 1400 1401 1402 1402 1403 1404 1405 1406 1407
1325 1327 1328 1330 1332 1333 1335 1337 1339 1342 1344 1346 1348 1351 1353 1355 1356 1358 1359 1359 1359 1358 1359 1360 1362 1363 1364 1366 1367 1368 1368 1370 1371 1372 1374 1376 1378 1379 1380 1382 1383 1384 1385 1386 1387 1388 1388 1389 1390 1391 1392 1393 1394 1394 1395 1396 1397 1397 1398 1398 1399 1400 1401 1401 1402 1403 1404 1405 1406
1324 1326 1328 1329 1331 1333 1334 1336 1338 1341 1343 1346 1348 1351 1353 1354 1355 1356 1355 1355 1355 1356 1358 1359 1361 1363 1364 1365 1367 1368 1369 1371 1373 1374 1375 1376 1377 1379 1380 1381 1383 1383 1384 1385 1386 1387 1388 1388 1389 1390 1391 1392 1393 1394 1394 1395 1396 1397 1397 1398 1398 1399 1400 1401 1401 1402 1403 1404 1405
1322 1324 1326 1328 1330 1332 1334 1336 1338 1341 1344 1346 1348 1350 1351 1352 1352 1352 1353 1353 1354 1356 1357 1359 1361 1362 1364 1365 1366 1368 1369 1371 1372 1373 1375 1376 1377 1378 1379 1380 1382 1383 1384 1385 1386 1386 1387 1388 1388 1389 1390 1391 1392 1393 1394 1394 1395 1396 1396 1397 1398 1398 1399 1400 1401 1401 1402 1403 1403
1320 1322 1324 1327 1329 1332 1334 1336 1339 1341 1344 1345 1347 1348 1349 1348 1349 1350 1352 1353 1354 1355 1357 1359 1360 1362 1363 1365 1366 1368 1369 1370 1372 1373 1374 1375 1377 1378 1379 1380 1381 1382 1383 1384 1385 1386 1387 1387 1388 1389 1390 1391 1391 1392 1393 1394 1394 1395 1396 1397 1397 1398 1398 1399 1400 1401 1401 1402 1403
1319 1321 1323 1326 1329 1331 1333 1336 1339 1341 1343 1344 1345 1345 1345 1345 1347 1349 1351 1352 1353 1355 1357 1358 1360 1362 1363 1364 1366 1367 1368 1370 1371 1372 1373 1375 1376 1377 1378 1379 1381 1382 1383 1384 1385 1386 1386 1387 1388 1388 1389 1390 1391 1392 1392 1393 1394 1394 1395 1396 1397 1397 1398 1399 1399 1400 1401 1402 1403
1318 1320 1323 1325 1328 1331 1333 1336 1339 1341 1341 1341 1340 1341 1343 1344 1346 1348 1350 1352 1353 1355 1357 1358 1360 1361 1363 1364 1366 1367 1368 1369 1371 1372 1373 1375 1376 1377 1378 1379 1381 1382 1383 1383 1384 1385 1386 1387 1388 1388 1389 1390 1390 1391 1392 1392 1393 1394 1395 1395 1396 1397 1398 1398 1399 1400 1401 1401 1402
1318 1320 1323 1325 1328 1331 1334 1336 1337 1338 1337 1337 1338 1340 1342 1344 1346 1348 1350 1352 1353 1355 1357 1358 1360 1361 1363 1364 1365 1367 1368 1369 1371 1372 1373 1375 1376 1377 1378 1379 1380 1381 1382 1383 1384 1385 1386 1386 1387 1388 1388 1389 1390 1390 1391 1392 1393 1393 1394 1395 1396 1396 1397 1398 1399 1400 1400 1401 1402
Wind_Speed
27 26 26 26 26 26 26 25 24 23 23 23 24 24 25 25 25 26 28 29 28 27 27 26 27 28 27 28 30 32 33 34 35 37 38 38 37 36 34 34 34 35 36 36 37 37 39 40 43 44 45 44 41 38 36 35 36 38 40 42 41 41 42 43 45 46 45 44 44
27 27 26 26 25 26 26 25 24 23 23 23 23 24 24 25 25 25 27 29 29 27 26 26 26 28 29 29 29 30 32 32 34 35 37 38 37 35 34 34 34 35 35 36 37 38 40 42 43 44 44 43 42 40 38 37 36 37 40 42 43 43 44 46 47 48 47 46 45
27 27 26 26 26 26 26 25 25 24 23 23 23 23 23 24 24 25 27 29 29 27 25 25 25 27 29 30 29 30 30 31 32 33 35 37 37 35 34 34 35 35 36 37 38 39 40 42 43 44 44 43 44 43 42 41 39 38 39 42 43 45 45 46 47 47 46 45 45
27 27 27 27 27 27 26 25 25 24 24 23 23 22 22 23 24 25 26 28 27 26 25 24 24 25 27 28 29 29 29 29 30 32 33 35 36 36 35 34 35 36 36 37 37 38 39 40 42 43 44 45 45 46 45 44 42 39 37 38 40 42 44 44 44 44 44 44 45
27 27 27 27 27 28 27 26 25 24 24 23 23 22 22 22 23 24 25 26 26 26 26 25 23 23 24 26 27 27 28 28 29 31 32 33 34 35 35 36 36 36 36 37 37 37 38 39 40 41 43 44 45 46 46 46 44 41 38 37 37 39 40 41 41 42 43 44 43
26 27 27 27 27 28 27 26 25 24 24 24 23 22 23 23 23 23 24 24 26 26 26 25 24 23 23 24 25 26 26 27 28 30 31 32 33 35 36 37 37 36 36 36 37 37 38 38 39 40 42 43 42 43 44 44 44 42 40 38 37 38 40 41 42 43 44 44 43
25 26 27 27 27 28 27 26 25 25 24 24 23 23 23 23 23 23 23 23 24 26 26 26 25 24 23 24 24 25 25 26 28 29 30 31 33 35 36 37 36 36 35 36 37 37 38 38 39 40 41 42 41 39 39 41 41 41 41 41 41 41 42 43 44 45 45 45 43
24 25 26 26 28 28 28 27 25 25 25 24 24 24 24 24 23 23 23 23 24 25 27 27 26 24 24 23 24 24 24 25 27 28 29 31 33 35 36 37 36 35 34 35 36 37 37 38 38 39 40 41 39 38 38 39 39 39 40 42 43 43 43 44 45 46 46 45 43
24 25 26 26 27 28 28 27 26 26 26 25 25 26 26 25 24 24 24 24 24 26 27 27 26 25 23 23 23 23 23 24 25 27 29 31 33 34 35 35 35 34 33 33 34 35 36 37 38 38 40 41 40 38 38 39 39 39 40 42 43 44 44 44 44 44 45 45 43
23 24 25 26 27 27 28 28 27 28 28 26 26 26 26 26 26 25 24 24 24 25 26 27 27 25 24 22 22 23 23 23 24 26 28 31 33 33 33 33 34 33 32 32 33 34 36 36 37 38 39 40 40 39 38 39 39 38 39 41 42 42 42 42 42 42 42 43 43
23 24 25 26 27 27 28 28 28 29 28 27 26 26 26 26 26 26 25 25 25 25 25 27 28 27 25 23 23 23 24 24 24 25 27 29 31 32 32 32 33 33 32 33 34 35 35 36 37 37 38 39 39 39 39 39 39 38 38 39 40 40 39 40 39 39 39 40 41
23 24 24 25 26 27 28 29 28 29 29 28 26 26 25 26 26 26 26 25 25 25 25 26 28 28 27 24 23 24 25 26 26 26 27 28 29 29 30 31 32 33 34 34 35 36 36 36 37 37 37 37 39 39 40 39 39 39 38 38 38 38 38 38 38 37 36 37 38
23 24 25 25 26 28 29 29 29 28 28 28 27 26 25 25 26 26 26 26 25 24 24 25 26 27 27 25 23 23 24 25 26 27 28 28 28 28 28 29 31 32 33 35 36 36 36 36 36 37 37 38 38 39 39 39 39 39 39 38 38 38 39 38 38 36 35 35 35
24 24 25 26 27 28 29 29 29 29 28 28 27 26 25 25 26 26 27 26 25 24 24 24 24 25 25 25 23 22 23 24 26 27 28 28 27 27 27 28 30 31 32 34 34 35 35 35 35 36 37 38 38 38 38 38 38 38 38 39 39 39 39 39 38 38 37 36 35
24 25 26 27 28 28 29 29 29 29 28 28 27 26 25 25 25 26 26 26 25 24 23 22 21 22 23 23 23 22 22 22 24 25 26 26 26 26 26 27 28 30 31 32 33 34 34 34 34 35 36 37 37 38 38 38 37 37 37 38 39 39 39 39 39 39 39 39 38
25 26 27 28 29 29 29 29 29 28 28 28 28 27 25 24 25 26 26 25 24 23 22 20 19 20 21 22 22 23 23 22 22 22 23 24 24 25 25 26 28 29 30 31 32 33 33 33 33 34 34 35 36 36 36 36 35 35 35 36 37 39 40 40 40 40 41 41 41
26 27 28 29 29 30 30 30 29 27 27 27 28 27 26 25 25 25 25 24 23 22 21 19 19 19 20 21 22 23 23 22 21 21 21 22 23 24 25 26 27 27 28 29 30 31 31 32 32 32 32 33 34 34 34 33 33 33 33 33 35 37 39 39 39 40 41 42 43
27 27 28 29 30 30 30 29 28 27 26 26 27 27 26 25 24 24 24 23 22 21 20 19 19 20 21 22 22 23 23 23 22 21 20 20 21 22 23 25 25 26 27 27 27 28 29 30 30 31 31 32 32 31 31 30 30 31 31 32 34 36 38 38 38 39 40 41 42
27 27 28 29 30 30 30 29 28 26 26 25 25 25 25 25 24 23 23 22 21 20 19 20 20 21 21 22 22 22 22 22 22 21 21 20 20 21 22 23 24 25 25 25 26 27 28 28 29 30 30 30 30 29 28 28 29 29 30 31 34 36 37 37 38 39 40 41 41
27 28 28 29 30 30 30 28 27 26 25 24 24 24 24 25 23 22 22 22 21 20 19 20 20 21 21 21 22 22 21 21 21 21 21 20 20 20 21 22 23 24 25 25 26 27 27 28 28 28 28 28 28 27 27 27 28 28 29 31 35 37 38 38 39 40 40 40 41
27 28 29 29 29 29 29 27 26 26 25 24 23 23 23 23 22 21 20 20 20 20 19 20 20 21 22 22 22 21 20 20 21 21 20 20 20 19 20 21 22 23 24 25 26 26 26 26 26 25 25 25 26 26 26 27 26 27 28 31 34 37 38 39 39 40 40 40 41
27 28 28 29 29 29 27 26 25 25 24 23 23 23 22 22 21 20 19 19 19 20 19 20 20 22 22 21 21 21 21 21 20 20 20 19 19 19 19 20 21 22 23 23 23 23 23 23 22 22 22 23 23 24 25 25 25 26 28 31 33 36 38 39 40 41 41 42 42
27 28 28 28 28 27 26 25 25 25 24 24 23 22 21 21 20 19 19 19 20 20 19 19 21 22 21 20 20 21 22 22 21 20 19 19 19 19 19 19 19 20 20 20 20 20 20 20 19 19 19 20 21 22 23 24 24 25 27 30 32 35 37 39 40 41 42 43 44
27 27 27 27 27 26 25 25 25 25 25 24 23 22 20 19 19 19 19 20 20 20 20 20 21 21 20 19 20 21 22 21 21 20 19 18 18 18 18 18 18 19 19 19 19 19 19 18 18 17 17 18 19 20 21 22 22 24 26 29 31 33 36 38 40 42 44 44 44
26 27 27 26 26 25 25 25 26 25 24 23 22 21 19 19 19 19 20 20 20 20 20 21 20 20 19 18 19 20 20 19 19 19 18 17 17 17 17 17 18 18 18 18 19 19 18 17 16 16 15 15 16 17 18 19 20 21 23 26 29 32 35 37 39 42 44 44 44
26 27 27 26 26 25 25 26 26 25 24 22 21 20 19 19 19 19 19 20 20 21 21 20 20 19 19 18 18 18 18 17 17 17 17 16 16 16 16 16 17 17 17 17 18 18 18 17 16 15 14 13 14 14 15 16 17 19 22 25 28 31 33 36 38 40 42 43 43
26 26 26 26 26 26 26 26 26 25 23 22 20 19 19 19 19 19 19 20 21 21 21 20 20 20 19 19 18 18 17 16 16 16 16 16 16 16 15 15 15 15 15 16 17 17 18 17 16 15 14 13 13 13 14 15 17 20 22 25 28 30 32 34 35 37 38 40 40
26 26 26 25 25 26 26 26 26 25 23 21 20 20 19 19 19 19 19 20 20 20 20 20 20 20 20 19 18 18 17 16 16 16 16 16 15 14 14 13 13 13 13 14 15 17 18 18 17 16 15 14 13 13 15 17 19 21 23 25 27 29 31 33 33 34 34 35 35
25 25 25 25 25 25 25 25 25 24 23 21 21 20 19 19 19 19 19 19 19 20 20 20 20 20 20 19 18 17 17 16 16 16 15 15 14 13 13 12 12 12 12 13 15 16 17 18 17 16 16 15 14 15 16 17 19 20 22 24 25 27 29 30 31 31 31 30 31
24 25 25 25 25 25 25 25 25 24 22 21 20 19 19 18 18 19 19 18 19 20 21 20 19 19 18 17 17 16 16 16 16 15 14 13 13 12 12 12 11 11 11 11 13 15 16 17 18 18 17 17 16 17 18 18 19 19 20 21 22 24 25 26 28 29 29 29 29
24 25 25 25 25 25 25 24 24 23 22 21 20 20 19 19 19 19 19 19 20 20 20 20 19 17 17 16 15 15 15 15 15 14 13 12 12 11 11 11 12 12 11 10 10 12 14 16 18 19 19 20 20 20 21 21 21 21 22 23 23 23 24 25 26 27 28 29 29
25 26 27 26 25 25 24 23 23 23 22 21 21 20 20 19 19 19 19 19 19 20 20 19 18 16 15 14 14 14 13 14 13 13 12 11 12 13 15 15 15 14 12 9 8 9 11 13 16 18 20 21 23 24 24 24 23 23 24 25 25 25 24 25 25 26 27 28 28
27 27 27 26 25 24 23 23 23 23 23 22 21 21 20 19 19 19 19 19 18 18 18 17 16 15 14 13 13 13 13 13 12 13 14 15 16 16 17 17 16 14 12 10 9 9 9 10 12 15 17 20 22 24 25 25 24 24 24 24 24 24 24 24 24 24 24 25 25
28 28 27 26 25 24 24 24 24 24 23 22 21 21 20 20 20 20 19 18 18 19 19 19 18 17 16 16 16 16 17 17 17 16 17 19 19 18 17 15 15 14 12 11 11 11 10 10 9 10 13 16 19 22 23 24 24 24 24 24 24 23 22 22 21 21 21 21 21
29 28 27 26 24 24 24 24 23 23 22 21 21 21 20 20 20 20 20 20 20 21 22 22 22 21 21 20 20 20 21 21 21 20 19 18 17 17 16 15 15 15 14 13 13 12 11 10 9 8 8 11 15 19 21 22 23 24 23 23 23 22 21 20 20 19 18 18 17
30 29 27 25 23 22 22 23 22 22 21 21 21 21 21 21 21 22 23 23 23 23 23 23 22 22 21 21 21 21 20 20 21 20 20 18 17 17 17 17 16 16 15 15 14 13 12 12 10 8 7 8 11 15 18 20 21 22 22 22 21 21 20 19 18 18 17 17 16
30 28 27 25 23 21 21 21 22 22 21 21 22 22 22 22 23 24 25 25 24 23 23 23 22 21 21 22 22 21 20 20 20 20 20 19 18 17 18 18 17 17 16 15 14 13 13 13 11 9 7 6 8 11 14 17 19 20 20 20 20 19 19 18 18 17 17 16 16
28 27 26 25 23 22 22 22 23 24 24 23 23 23 24 25 26 26 25 25 24 23 23 23 22 22 22 22 23 22 21 20 19 19 19 19 18 18 18 19 18 17 16 15 14 13 13 13 12 10 7 6 7 9 11 14 16 17 18 18 18 17 17 17 17 16 16 15 15
26 25 25 25 23 23 23 24 26 26 26 26 26 26 27 27 27 27 26 25 25 24 23 23 23 23 23 23 23 22 22 21 20 19 19 19 19 18 18 19 19 18 16 15 13 13 13 13 12 10 8 7 7 8 9 11 13 14 15 15 15 15 15 15 15 14 14 14 14
24 24 24 24 23 24 25 27 27 27 27 28 29 29 28 28 28 27 26 26 25 24 24 23 22 23 23 23 23 22 22 21 20 20 19 19 18 18 18 18 18 18 16 15 13 13 12 12 11 10 9 8 8 8 9 10 10 11 12 12 12 12 11 11 12 11 11 12 12
25 25 25 23 23 24 26 27 27 28 29 29 30 30 30 29 28 27 26 26 25 24 24 23 22 22 22 22 22 22 22 21 20 19 19 18 18 17 17 17 18 17 16 15 13 13 12 12 12 11 10 10 9 9 9 9 9 10 10 10 10 10 10 9 8 8 9 10 11
Wind_Direction
208 208 207 207 206 206 206 205 205 204 203 203 202 201 199 196 196 198 200 199 199 200 202 203 204 203 201 203 206 209 212 215 218 219 219 217 217 218 218 218 217 219 220 220 220 219 219 220 221 221 218 214 210 209 208 209 211 212 213 212 211 210 210 211 211 211 210 208 206
208 208 207 206 205 205 205 205 204 203 202 203 202 201 199 196 196 197 199 200 199 199 201 203 205 203 202 202 205 209 211 214 217 219 220 219 219 219 218 218 217 218 219 219 219 219 219 220 220 218 214 210 208 207 207 207 208 210 212 213 213 213 213 214 214 214 213 210 208
206 207 207 206 205 204 204 204 204 203 202 201 201 200 198 197 197 198 200 200 200 199 199 201 204 205 204 203 205 208 211 214 216 218 220 220 220 219 218 218 218 218 218 218 217 217 217 218 217 214 211 209 209 209 210 209 209 209 211 214 216 217 218 217 217 216 214 212 211
205 206 206 206 205 204 204 204 203 202 201 201 201 199 198 198 198 199 200 200 200 199 198 199 201 203 204 203 206 209 211 213 215 217 219 221 221 219 217 217 218 218 217 217 215 214 214 214 213 212 211 211 212 213 213 213 211 209 210 214 217 219 219 218 217 215 214 212 212
204 205 206 206 205 205 204 203 203 202 200 199 199 199 199 199 199 199 200 201 199 198 197 196 198 200 202 203 206 208 210 211 214 217 219 221 221 220 219 218 217 216 215 214 212 212 212 211 210 211 212 214 215 215 216 216 213 211 210 211 215 217 217 216 215 214 213 212 212
202 203 204 205 205 204 203 203 203 201 200 199 198 199 200 199 199 199 200 200 199 198 197 196 196 198 200 201 203 205 207 210 215 216 217 219 220 219 217 215 215 214 212 211 210 210 210 211 211 213 215 216 216 218 220 218 216 214 212 211 214 217 217 216 216 215 214 212 211
201 202 203 205 205 204 202 201 201 200 199 199 198 198 198 198 199 199 200 200 199 198 198 198 197 197 198 199 200 202 206 211 215 216 215 216 217 218 216 213 212 211 210 210 210 210 211 213 214 216 218 219 218 219 220 221 220 217 215 214 216 219 220 219 219 218 216 213 211
200 201 202 204 205 204 201 200 200 199 198 199 200 200 200 199 199 199 199 198 198 198 198 198 197 196 196 198 199 202 206 211 213 213 213 213 214 215 214 211 209 208 208 209 211 212 214 216 217 219 220 221 220 219 220 222 222 221 220 219 218 220 222 222 222 221 219 215 212
197 199 202 204 205 204 202 200 201 202 202 202 203 204 204 202 200 199 197 197 197 197 197 197 195 194 195 197 198 200 204 209 212 212 210 209 210 211 210 207 206 205 206 209 211 214 216 218 219 220 222 222 221 221 222 223 223 223 223 222 222 222 223 223 224 223 221 218 213
195 197 200 203 204 204 203 202 204 205 205 205 206 206 205 203 200 198 196 195 195 195 196 195 193 191 192 195 198 201 203 208 210 209 208 208 208 207 205 204 203 204 206 209 212 215 217 219 220 221 223 225 224 224 224 225 224 224 224 225 225 225 224 224 224 224 222 219 215
195 198 200 202 204 204 203 202 203 205 206 206 205 204 203 201 199 198 196 195 195 195 195 195 194 192 191 193 198 202 205 206 207 206 206 206 207 206 205 205 205 206 208 211 214 217 219 220 222 223 224 225 225 226 226 226 225 224 225 227 228 227 225 223 223 222 221 219 215
196 198 200 201 202 202 201 200 201 203 204 203 203 202 201 200 199 197 196 196 196 195 196 197 198 197 196 196 199 203 206 207 206 206 206 206 206 206 207 209 210 211 213 215 217 219 221 223 224 225 225 224 225 226 227 227 227 226 227 229 231 230 226 223 221 220 219 216 213
196 197 198 199 200 200 200 200 200 201 202 201 201 201 201 200 199 197 197 196 196 196 196 199 202 203 202 200 200 203 206 209 209 209 207 206 206 207 209 212 214 215 216 218 220 222 223 225 226 227 227 226 226 227 228 228 228 228 229 230 232 230 227 223 221 218 216 213 209
195 196 196 197 198 199 199 199 199 201 201 201 200 200 200 200 198 197 197 197 197 196 196 200 204 206 204 202 201 201 204 208 210 209 207 205 206 206 208 210 214 216 217 219 222 223 225 226 227 228 228 228 228 228 229 229 230 231 232 233 233 231 228 224 221 218 215 212 208
195 195 195 195 197 198 198 198 199 201 201 201 200 200 200 199 197 196 197 197 195 195 196 199 202 203 202 200 199 198 200 203 205 205 203 202 203 204 206 208 211 215 218 220 223 225 226 227 228 228 229 229 229 229 230 232 233 234 236 237 236 234 230 225 222 219 217 215 212
193 193 194 195 196 196 197 198 200 201 201 201 200 200 199 198 197 196 196 195 194 194 196 199 200 200 199 197 196 196 196 198 199 199 198 198 200 202 204 206 209 213 217 220 223 225 226 227 227 228 228 229 230 231 232 234 236 238 240 241 241 238 233 227 223 221 220 219 217
191 192 194 195 195 195 196 197 199 200 200 200 200 199 199 198 197 196 195 193 192 193 196 198 197 197 197 196 195 196 196 196 196 196 196 197 199 201 204 205 208 211 214 218 220 222 223 224 225 226 228 230 232 234 235 237 239 241 243 245 245 242 236 229 224 223 223 223 222
192 193 194 195 194 194 194 195 197 199 199 200 200 200 199 198 197 196 193 191 192 194 195 194 193 195 197 197 196 196 197 197 197 197 198 200 201 202 204 206 208 210 212 214 215 217 219 221 223 224 227 231 234 236 238 240 242 244 246 248 248 244 238 229 224 223 224 224 224
191 192 193 194 193 192 192 193 195 197 199 199 199 199 199 197 196 194 192 191 193 194 193 191 191 194 197 198 197 197 197 197 198 198 199 200 202 203 204 206 207 209 210 211 212 214 217 220 223 225 228 231 234 236 238 240 243 246 249 250 249 245 237 229 224 223 224 225 226
191 192 193 193 190 189 190 191 193 196 198 199 198 198 197 195 193 192 191 191 193 194 193 192 193 195 197 199 198 196 196 196 197 198 198 199 201 202 204 205 206 207 209 211 213 216 219 223 225 228 230 232 234 236 237 240 243 246 249 251 249 244 238 231 226 223 222 223 225
192 192 192 191 188 187 187 188 192 195 198 198 198 196 194 191 189 188 189 190 192 193 193 195 196 197 197 197 197 195 194 194 195 196 197 198 199 201 203 205 207 208 210 213 215 219 222 224 227 229 231 234 236 237 237 239 242 246 248 249 247 244 240 235 230 225 221 221 223
193 192 190 189 187 185 185 187 191 195 198 198 197 194 191 188 186 186 187 190 190 192 194 197 198 197 196 195 195 195 195 194 194 195 196 198 199 201 203 205 208 210 212 214 217 220 223 225 226 227 230 234 237 238 238 239 241 244 247 247 245 243 241 238 233 227 222 221 223
192 190 188 186 185 184 184 186 191 195 198 198 196 192 188 185 185 186 187 189 189 190 192 195 197 196 194 193 194 196 197 196 195 195 197 198 199 200 203 206 208 210 212 215 218 220 222 224 225 226 228 231 234 236 237 239 242 244 246 245 244 242 240 238 233 228 225 224 226
190 186 183 182 183 183 183 186 190 194 196 196 193 189 186 183 184 187 189 190 189 189 190 194 196 196 195 194 196 198 199 197 196 197 198 198 198 199 202 205 207 210 214 217 219 220 220 221 222 224 226 229 232 234 236 239 242 245 246 245 242 240 238 235 232 229 227 227 229
186 182 180 179 180 181 183 186 190 192 193 193 190 186 183 182 185 187 188 189 189 189 191 194 195 195 195 195 197 199 199 197 198 198 198 198 198 199 202 205 208 212 216 220 221 222 222 221 220 221 224 228 232 235 237 240 243 247 248 247 242 238 234 232 231 229 229 229 231
183 181 180 180 180 181 183 186 188 190 190 188 186 182 180 182 185 186 187 188 189 190 192 193 193 193 192 193 193 194 194 196 197 197 197 196 197 198 202 206 211 216 220 224 225 226 225 223 220 220 223 229 234 237 240 243 247 250 251 249 243 237 232 230 229 229 230 231 232
181 180 180 179 180 181 184 186 187 187 186 184 182 181 181 182 183 184 185 188 191 193 194 194 193 191 190 189 189 189 189 192 193 193 194 195 196 198 202 207 213 219 224 228 230 231 229 226 222 221 224 229 235 241 245 248 250 251 250 246 242 237 233 230 229 230 231 232 233
180 180 179 179 181 182 184 185 185 185 183 180 179 179 181 181 181 181 185 191 193 193 192 191 190 189 187 187 187 187 187 188 189 191 192 194 195 198 201 207 212 218 224 228 232 233 232 229 226 224 225 230 236 244 250 252 251 249 247 243 240 238 235 233 232 232 232 232 232
180 179 178 179 181 182 183 183 183 181 179 177 177 178 179 179 181 185 189 192 191 188 185 184 184 184 185 185 185 186 186 187 188 189 191 192 195 198 201 205 210 216 222 227 230 233 233 233 231 229 228 231 237 245 251 252 250 248 247 245 243 242 240 238 237 235 234 233 233
180 178 177 178 179 180 180 181 179 177 175 175 176 178 178 178 183 188 190 188 186 183 180 179 180 180 181 181 182 183 184 186 187 188 190 191 193 195 198 202 208 215 221 227 231 232 233 234 234 233 233 235 240 244 245 241 239 237 236 237 237 238 238 236 236 235 234 234 234
179 177 177 177 177 178 178 177 175 173 172 174 177 179 180 180 186 188 187 183 181 178 177 177 178 178 177 176 176 178 181 185 187 187 188 188 188 189 191 195 204 212 218 223 226 229 230 231 232 233 234 236 238 235 229 223 220 220 221 223 225 227 228 230 230 231 232 232 234
178 177 176 176 175 175 174 173 171 170 171 174 177 180 181 181 183 183 180 178 176 175 176 177 176 175 173 172 172 173 177 183 186 185 183 181 183 185 187 190 199 205 207 206 205 209 216 223 227 230 232 233 232 230 226 222 219 218 220 222 224 226 228 229 231 232 234 235 235
177 176 175 174 172 171 170 170 170 171 172 175 175 175 175 177 177 175 173 172 171 172 172 171 169 167 167 169 169 170 172 175 176 176 177 178 183 188 191 192 194 195 193 188 181 182 191 204 216 224 229 230 230 230 229 227 225 223 223 224 225 227 228 229 230 232 234 235 237
175 173 172 170 168 167 167 167 168 169 170 170 171 171 171 173 171 168 166 166 165 164 162 159 157 157 159 163 166 167 167 167 167 172 178 182 184 187 189 190 189 185 181 175 173 173 177 184 196 212 224 228 229 229 229 228 227 226 225 225 225 225 226 227 228 230 232 235 237
172 170 168 166 165 163 161 162 163 164 165 167 169 170 170 170 166 163 162 164 166 166 163 160 160 162 164 166 167 169 171 173 175 176 177 180 183 185 187 186 182 177 173 171 171 172 174 177 182 194 212 224 228 229 229 229 228 227 226 225 225 225 226 227 229 232 234 237 240
169 167 165 164 161 157 154 154 155 158 162 167 168 168 166 163 161 163 167 169 169 169 167 166 166 167 168 169 170 171 172 174 176 178 180 181 183 185 185 183 178 174 172 171 172 174 176 177 180 185 199 219 226 229 229 229 228 227 227 226 226 227 228 230 232 235 238 240 242
165 163 162 161 159 155 153 153 155 158 162 166 166 164 161 159 162 167 171 173 171 168 167 168 170 172 172 173 171 169 168 170 173 175 178 181 184 186 186 182 177 173 173 174 176 178 179 181 182 186 197 216 226 229 229 229 228 228 227 227 227 228 229 230 232 234 236 237 239
160 158 158 158 158 159 161 161 162 163 164 164 162 161 160 161 164 168 172 174 172 167 165 167 170 172 173 172 170 167 166 167 171 173 175 179 183 186 185 181 176 174 175 177 180 182 183 184 185 189 198 217 229 231 230 229 228 228 228 228 228 228 228 229 230 230 231 231 232
154 154 155 156 159 163 167 169 168 167 165 162 159 159 162 165 167 169 171 174 173 170 167 166 167 169 170 170 169 169 170 172 176 178 178 178 182 184 183 179 176 176 177 180 182 185 186 187 189 192 201 218 230 233 230 228 228 228 228 228 227 226 226 228 227 226 225 224 224
151 152 154 157 161 167 170 170 168 166 163 159 158 161 166 169 170 170 170 172 171 170 169 168 165 165 167 169 170 172 174 177 180 182 181 179 180 181 181 179 177 178 179 181 184 187 189 190 193 198 207 220 229 231 229 227 227 228 227 225 224 222 222 223 225 222 219 216 216
152 152 153 155 161 167 168 166 163 160 159 158 159 162 168 172 171 170 170 170 169 169 169 168 166 165 167 169 171 175 177 178 179 180 180 179 179 180 180 180 180 180 181 183 188 192 194 196 199 204 213 222 228 229 227 224 223 222 221 219 218 215 212 211 213 212 208 207 207